TimeEST,TemperatureF,Dew PointF,Humidity,Sea Level PressureIn,VisibilityMPH,Wind Direction,Wind SpeedMPH,Gust SpeedMPH,PrecipitationIn,Events,Conditions,WindDirDegrees,DateUTC
12:15 AM,68.0,64.4,88,29.96,10.0,SW,8.1,-,N/A,,Overcast,220,2013-01-02 05:15:00
12:35 AM,68.0,64.4,88,29.96,10.0,SSW,6.9,-,N/A,,Overcast,210,2013-01-02 05:35:00
12:55 AM,68.0,64.4,88,29.95,10.0,SSW,6.9,-,N/A,,Overcast,210,2013-01-02 05:55:00
1:15 AM,68.0,64.4,88,29.95,7.0,SW,8.1,-,N/A,,Overcast,220,2013-01-02 06:15:00
1:35 AM,68.0,64.4,88,29.95,7.0,SSW,6.9,-,N/A,,Overcast,210,2013-01-02 06:35:00
1:55 AM,68.0,66.2,94,29.95,5.0,SSW,6.9,-,N/A,,Light Drizzle,210,2013-01-02 06:55:00
2:15 AM,66.2,66.2,100,29.95,3.0,WNW,3.5,-,N/A,Rain,Heavy Rain,290,2013-01-02 07:15:00
2:35 AM,64.4,64.4,100,29.95,5.0,West,4.6,-,N/A,Rain,Light Rain,280,2013-01-02 07:35:00
2:55 AM,64.4,64.4,100,29.96,7.0,WNW,3.5,-,N/A,,Light Drizzle,290,2013-01-02 07:55:00
3:15 AM,64.4,64.4,100,29.96,10.0,WNW,3.5,-,N/A,,Overcast,290,2013-01-02 08:15:00
3:35 AM,64.4,64.4,100,29.96,7.0,WNW,3.5,-,N/A,,Drizzle,290,2013-01-02 08:35:00
4:15 AM,60.8,60.8,100,29.97,10.0,NNW,4.6,-,N/A,,Overcast,330,2013-01-02 09:15:00
4:35 AM,59.0,59.0,100,29.98,7.0,NNW,8.1,-,N/A,Rain,Light Rain,340,2013-01-02 09:35:00
4:55 AM,57.2,57.2,100,29.98,4.0,NNW,5.8,-,N/A,,Heavy Drizzle,340,2013-01-02 09:55:00
5:15 AM,57.2,57.2,100,29.98,10.0,North,6.9,-,N/A,,Overcast,350,2013-01-02 10:15:00
5:35 AM,57.2,57.2,100,30.00,10.0,NW,4.6,-,N/A,,Overcast,320,2013-01-02 10:35:00
5:55 AM,55.4,55.4,100,30.01,7.0,NNW,5.8,-,N/A,,Drizzle,330,2013-01-02 10:55:00
6:15 AM,55.4,55.4,100,30.01,7.0,North,5.8,-,N/A,Rain,Rain,350,2013-01-02 11:15:00
6:35 AM,55.4,55.4,100,30.02,10.0,North,4.6,-,N/A,,Overcast,350,2013-01-02 11:35:00
7:15 AM,55.4,55.4,100,30.03,10.0,North,5.8,-,N/A,,Overcast,360,2013-01-02 12:15:00
7:35 AM,55.4,53.6,94,30.04,10.0,NNW,6.9,-,N/A,,Overcast,340,2013-01-02 12:35:00
7:55 AM,55.4,53.6,94,30.04,10.0,North,6.9,-,N/A,,Overcast,10,2013-01-02 12:55:00
8:15 AM,55.4,53.6,94,30.05,10.0,North,4.6,-,N/A,,Overcast,10,2013-01-02 13:15:00
8:35 AM,55.4,53.6,94,30.06,10.0,North,5.8,-,N/A,,Overcast,360,2013-01-02 13:35:00
8:55 AM,55.4,53.6,94,30.06,10.0,North,5.8,-,N/A,,Overcast,10,2013-01-02 13:55:00
9:15 AM,55.4,51.8,88,30.08,10.0,North,4.6,-,N/A,,Overcast,10,2013-01-02 14:15:00
9:35 AM,55.4,51.8,88,30.08,10.0,North,4.6,-,N/A,,Overcast,360,2013-01-02 14:35:00
10:15 AM,55.4,51.8,88,30.10,10.0,North,6.9,-,N/A,,Overcast,350,2013-01-02 15:15:00
10:35 AM,57.2,51.8,82,30.11,10.0,North,5.8,-,N/A,,Overcast,350,2013-01-02 15:35:00
10:55 AM,57.2,51.8,82,30.10,10.0,NNE,5.8,-,N/A,,Overcast,30,2013-01-02 15:55:00
11:15 AM,59.0,51.8,77,30.10,10.0,NNE,5.8,-,N/A,,Overcast,20,2013-01-02 16:15:00
11:35 AM,59.0,51.8,77,30.10,10.0,North,3.5,-,N/A,,Overcast,350,2013-01-02 16:35:00
11:55 AM,59.0,53.6,82,30.10,10.0,North,4.6,-,N/A,,Overcast,350,2013-01-02 16:55:00
12:15 PM,59.0,51.8,77,30.08,10.0,NNW,3.5,-,N/A,,Overcast,340,2013-01-02 17:15:00
12:35 PM,59.0,51.8,77,30.08,10.0,NE,4.6,-,N/A,,Overcast,40,2013-01-02 17:35:00
12:55 PM,59.0,51.8,77,30.07,10.0,North,4.6,-,N/A,,Overcast,360,2013-01-02 17:55:00
1:15 PM,60.8,53.6,77,30.05,10.0,North,3.5,-,N/A,,Overcast,350,2013-01-02 18:15:00
1:35 PM,60.8,51.8,72,30.05,10.0,Calm,Calm,-,N/A,,Scattered Clouds,0,2013-01-02 18:35:00
1:55 PM,62.6,51.8,68,30.05,10.0,NNE,5.8,-,N/A,,Mostly Cloudy,30,2013-01-02 18:55:00
2:15 PM,62.6,51.8,68,30.05,10.0,North,4.6,-,N/A,,Overcast,360,2013-01-02 19:15:00
2:35 PM,62.6,51.8,68,30.03,10.0,Calm,Calm,-,N/A,,Overcast,0,2013-01-02 19:35:00
2:55 PM,64.4,50.0,59,30.03,10.0,North,6.9,-,N/A,,Scattered Clouds,10,2013-01-02 19:55:00
3:15 PM,64.4,48.2,56,30.04,10.0,North,6.9,-,N/A,,Clear,10,2013-01-02 20:15:00
3:35 PM,64.4,48.2,56,30.04,10.0,North,5.8,-,N/A,,Clear,360,2013-01-02 20:35:00
3:55 PM,64.4,50.0,59,30.04,10.0,Calm,Calm,-,N/A,,Mostly Cloudy,0,2013-01-02 20:55:00
4:15 PM,64.4,50.0,59,30.03,10.0,NNE,3.5,-,N/A,,Mostly Cloudy,30,2013-01-02 21:15:00
4:35 PM,64.4,50.0,59,30.05,10.0,Calm,Calm,-,N/A,,Mostly Cloudy,0,2013-01-02 21:35:00
4:55 PM,62.6,51.8,68,30.05,10.0,Calm,Calm,-,N/A,,Mostly Cloudy,0,2013-01-02 21:55:00
5:15 PM,62.6,53.6,72,30.05,10.0,Calm,Calm,-,N/A,,Overcast,0,2013-01-02 22:15:00
5:35 PM,60.8,53.6,77,30.05,10.0,Calm,Calm,-,N/A,,Overcast,0,2013-01-02 22:35:00
5:55 PM,60.8,53.6,77,30.06,10.0,WNW,3.5,-,N/A,,Overcast,290,2013-01-02 22:55:00
6:15 PM,60.8,50.0,68,30.06,10.0,Calm,Calm,-,N/A,,Overcast,0,2013-01-02 23:15:00
6:35 PM,60.8,50.0,68,30.07,10.0,Calm,Calm,-,N/A,,Overcast,0,2013-01-02 23:35:00
6:55 PM,59.0,50.0,72,30.07,10.0,Calm,Calm,-,N/A,,Overcast,0,2013-01-02 23:55:00
7:15 PM,59.0,51.8,77,30.08,10.0,NNW,3.5,-,N/A,,Overcast,340,2013-01-03 00:15:00
7:55 PM,59.0,50.0,72,30.13,10.0,WNW,5.8,-,N/A,,Overcast,300,2013-01-03 00:55:00
8:15 PM,59.0,50.0,72,30.14,10.0,NNW,8.1,-,N/A,,Overcast,340,2013-01-03 01:15:00
8:35 PM,59.0,50.0,72,30.14,10.0,NNW,5.8,-,N/A,,Overcast,340,2013-01-03 01:35:00
8:55 PM,57.2,48.2,72,30.14,10.0,North,5.8,-,N/A,,Overcast,350,2013-01-03 01:55:00
9:15 PM,55.4,48.2,77,30.14,10.0,North,4.6,-,N/A,,Overcast,350,2013-01-03 02:15:00
9:35 PM,55.4,48.2,77,30.13,10.0,North,5.8,-,N/A,,Overcast,10,2013-01-03 02:35:00
9:55 PM,55.4,48.2,77,30.12,10.0,Calm,Calm,-,N/A,,Overcast,0,2013-01-03 02:55:00
10:15 PM,55.4,48.2,77,30.13,10.0,North,3.5,-,N/A,,Overcast,350,2013-01-03 03:15:00
10:35 PM,53.6,48.2,82,30.13,10.0,NNE,6.9,-,N/A,,Overcast,20,2013-01-03 03:35:00
10:55 PM,53.6,46.4,77,30.13,10.0,North,5.8,-,N/A,,Overcast,360,2013-01-03 03:55:00
11:15 PM,53.6,46.4,77,30.13,10.0,Calm,Calm,-,N/A,,Overcast,0,2013-01-03 04:15:00
11:35 PM,53.6,46.4,77,30.14,10.0,North,4.6,-,N/A,,Overcast,350,2013-01-03 04:35:00
11:55 PM,53.6,46.4,77,30.15,10.0,NNW,3.5,-,N/A,,Overcast,330,2013-01-03 04:55:00